Regional Weather Roundup
Issued by NWS

Home | Current Version | Previous Version | Text Only | Print | Product List | Glossary On
Versions: 1 2 3 4 5 6 7 8 9 10 11 12 13 14 15 16 17 18 19 20 21 22 23 24 25 26 27 28 29 30 31 32 33 34 35 36 37 38 39 40 41 42 43 44 45 46 47 48 49 50
000
ASUS44 KFWD 200315
RWRTX
NORTH TEXAS HOURLY WEATHER ROUNDUP
NATIONAL WEATHER SERVICE FORT WORTH TX
900 PM CST SUN FEB 19 2017

NOTE: "FAIR" INDICATES FEW OR NO CLOUDS BELOW 12,000 FEET WITH NO
SIGNIFICANT WEATHER AND/OR OBSTRUCTIONS TO VISIBILITY.

TXZ118-119-200400-
DALLAS/FORT WORTH METROPLEX

CITY           SKY/WX    TMP DP  RH WIND       PRES   REMARKS
DFW AIRPORT    MOCLDY    71  66  84 SE16      29.81S
DALLAS LOVE    MOCLDY    71  65  81 SE16      29.82F
FTW MEACHAM    CLOUDY    72  64  76 SE21G26   29.80R
DAL-EXECUTIVE  CLEAR     69  66  90 SE12      29.83S
FTW-ALLIANCE   CLOUDY    70  64  81 SE16G25   29.81R
FTW-NAS-JRB    CLOUDY    72  65  78 SE20      29.81R
FTW-SPINKS     MOCLDY    70  64  83 SE13G20   29.84R
ARLINGTON      MOCLDY    69  65  86 SE15      29.83R
GRAND PRAIRIE  PTCLDY    70  64  82 SE15G21   29.83S
ADDISON        MOCLDY    70  64  83 SE14G24   29.85R
MESQUITE       CLEAR     69  65  88 SE13G20   29.84F
LANCASTER      CLEAR     68  65  88 SE8       29.85S
$$

TXZ091>094-102>105-117-120-121-131>134-200400-
NORTH CENTRAL TEXAS

CITY           SKY/WX    TMP DP  RH WIND       PRES   REMARKS
SHRMAN/DENISON PTCLDY    68  64  84 SE16      29.84F
GAINESVILLE    CLOUDY    68  64  85 SE15G22   29.85R
BOWIE          LGT RAIN  69  66  90 SE12G21   29.79F
BRIDGEPORT     CLOUDY    69  64  84 SE13G20   29.82S
DECATUR        CLOUDY    69  64  84 SE16G23   29.82R
DENTON         CLOUDY    70  65  84 SE15G25   29.81R
MCKINNEY       PTCLDY    68  66  93 SE10      29.84F
BONHAM         PTCLDY    68  63  83 SE13      29.87S
GREENVILLE     CLOUDY    70  63  78 SE14      29.87F
ROCKWALL       CLEAR     69  66  91 SE14G21   29.84F
TERRELL        PTCLDY    70  64  81 SE14G25   29.85F
WAXAHACHIE     CLOUDY    68  67  98 SE6       29.85S FOG
CLEBURNE       CLOUDY    72  68  88 SE13      29.85R
GRANBURY       CLOUDY    73  65  76 SE15G22   29.82S
$$

TXZ083>090-098>101-113>116-127>130-139>142-154-155-200400-
WESTERN NORTH TEXAS

CITY           SKY/WX    TMP DP  RH WIND       PRES   REMARKS
WICHITA FALLS  TSTM      58  56  93 CALM      29.82R
WF-KICKAPOO    TSTM      61  58  89 SE6       29.83R
VERNON         CLOUDY    61  53  74 W14       29.85R
ABILENE        LGT RAIN  56  51  84 NW6       29.88R
ABILENE-DYESS  LGT RAIN  57  54  88 W7        29.89R
GRAHAM         HVY RAIN  61  61 100 W16       29.81R
BRECKENRIDGE   LGT RAIN  61  58  90 W14       29.85R
CISCO          DRIZZLE   57  55  94 W13G18    29.87R
RANGER         HVY RAIN  55  54  94 NW9       29.87R
MINERAL WELLS  CLOUDY    71  64  78 SE16      29.80R
STEPHENVILLE   CLOUDY    70  63  78 S8        29.86R
COMANCHE       CLOUDY    65  55  69 W14G21    29.87R
BROWNWOOD      RAIN      57  57 100 N8        29.86F
COLEMAN        RAIN      57  50  77 NW15      29.87R
$$

TXZ143>147-156>162-174-175-200400-
CENTRAL TEXAS

CITY           SKY/WX    TMP DP  RH WIND       PRES   REMARKS
WACO           MOCLDY    72  65  78 SE15      29.83R
WACO-TSTC      CLOUDY    72  64  78 SE9       29.83R
WACO-MCGREGOR  MOCLDY    71  66  84 SE15      29.84R
HILLSBORO      PTCLDY    70  66  86 E12G21    29.83R
CORSICANA      PTCLDY    69  67  93 SE13      29.86F FOG
MEXIA          PTCLDY    70  64  83 SE7G16    29.86R
HEARNE         CLOUDY    73  66  79 SE9G16    29.87R
CAMERON        CLOUDY    73  66  81 SE8       29.85R
TEMPLE         CLOUDY    72  67  84 SE13      29.84R
KILLEEN        CLOUDY    69  66  90 SE15      29.82R
KILLEEN-SKYLRK CLOUDY    71  67  87 SE15G23   29.83R
FORT HOOD      CLOUDY    69  65  89 SE15      29.80R
GATESVILLE     MOCLDY    72  66  83 SE9G16    29.86R
HAMILTON       CLOUDY    70  65  85 SE14      29.84R
LAMPASAS       CLOUDY    71  68  90 SE8       29.82S
$$

TXZ095>097-106>112-122>126-135>138-148>153-164>167-200400-
EAST TEXAS

CITY           SKY/WX    TMP DP  RH WIND       PRES   REMARKS
PARIS          CLOUDY    66  59  77 E9        29.91S
SULPHUR SPRNGS CLOUDY    71  64  80 SE9       29.91F
MOUNT PLEASANT CLEAR     69  58  69 SE6       29.93R
GILMER         PTCLDY    69  64  82 E5        29.92R
MINEOLA        CLOUDY    70  64  83 SE3       29.90R
TYLER          MOCLDY    70  65  84 SE12      29.90R
LONGVIEW       CLEAR     71  66  84 SE12      29.91R
MARSHALL       CLEAR     70  63  77 SE3       29.96S
ATHENS         PTCLDY    68  66  94 SE7       29.88R
PALESTINE      CLEAR     70  66  87 SE6       29.90R
JACKSONVILLE   PTCLDY    69  67  94 SE8       29.93S
HENDERSON      MOCLDY    70  64  83 SE10      29.93R
CENTER         PTCLDY    73  69  87 SE6       29.96S
NACOGDOCHES    CLOUDY    70  64  83 SE10G17   29.92R
LUFKIN         PTCLDY    69  64  84 SE10      29.91F
$$

SUPPLEMENTAL OBSERVATIONS (CENTRAL)

CITY           SKY/WX    TMP DP  RH WIND       PRES   REMARKS
DENISON DAM      N/A     68  63  83 SE12        N/A
CADDO GRASSLND   N/A     66  61  82 SE7G15      N/A
PAT MAYSE LAKE   N/A     64  63  94 E7          N/A
GREENVILLE       N/A     70  63  78 SE12        N/A
CEDAR HILL       N/A     70  66  88 SE9G20      N/A
ATHENS           N/A     68  64  88 SE9         N/A
LAKE LIMESTONE   N/A     72  63  73 SE9         N/A
MCGREGOR         N/A     72  66  83 SE14        N/A
TEMPLE           N/A     70  66  88 SE10        N/A
$$

SUPPLEMENTAL OBSERVATIONS (WEST)

CITY           SKY/WX    TMP DP  RH WIND       PRES   REMARKS
MILLERS CREEK    N/A     55  54  94 N6          N/A
POSSUM KINGDOM   N/A     61  59  94 NW3G23      N/A
LBJ GRASSLAND    N/A     70  64  83 SE15G25     N/A
GRANBURY         N/A     72  64  78 SE15G24     N/A
COMANCHE         N/A     59  50  72 NW17G23     N/A
HAMBY            N/A     57  52  82 W3          N/A
IVIE RESERVOIR   N/A     57  52  82 NW12        N/A
COLORADO BEND    N/A     70  63  78 S12         N/A
$$

SUPPLEMENTAL OBSERVATIONS (EAST)

CITY           SKY/WX    TMP DP  RH WIND       PRES   REMARKS
CLARKSVILLE      N/A     66  59  77 E3          N/A
TEXARKANA        N/A     70  55  60 SE5         N/A
LINDEN           N/A     66  57  72 E2          N/A
CADDO LAKE       N/A    N/A N/A N/A E1          N/A
GILMER           N/A     70  63  78 SE3         N/A
HENDERSON        N/A     70  64  83 SE9         N/A
LUFKIN           N/A     70  63  78 MISG        N/A
N SABINE NF      N/A     68  64  88 MISG        N/A
S SABINE NF      N/A     70  66  88 SE2         N/A
$$

SUPPLEMENTAL OBSERVATIONS ARE A COLLECTION OF AUTOMATED INSTRUMENTS
THAT ARE MAINTAINED BY A VARIETY OF FEDERAL AND STATE AGENCIES.
CERTAIN ELEMENTS...SUCH AS HUMIDITY VALUES AND SUSTAINED WIND
SPEEDS...MAY BE APPROXIMATED.





USA.gov is the U.S. government's official web portal to all federal, state and local government web resources and services.